Decatur, AL

2:00 PM CDT on June 23, 2017 (GMT -0500)
Pryor Regional

Weather History for KDCU - May, 2013

Change the Weather History Date:

Friday, May 24, 2013

  Actual Average Record
Temperature  
Mean Temperature 66 °F -  
Max Temperature 75 °F 81 °F 93 °F (1953)
Min Temperature 57 °F 58 °F 46 °F (1951)
Cooling Degree Days 1    
Growing Degree Days 16 (Base 50)    
Moisture  
Dew Point 50 °F    
Average Humidity 63    
Maximum Humidity 94    
Minimum Humidity 32    
Precipitation  
Precipitation 0.00 in - - ()
Sea Level Pressure  
Sea Level Pressure 30.21 in    
Wind  
Wind Speed 7 mph (NNE)    
Max Wind Speed 15 mph    
Max Gust Speed 21 mph    
Visibility 10 miles    
Events      
Averages and records for this station are not official NWS values.
T = Trace of Precipitation, MM = Missing Value Source: NWS Daily Summary

Daily Weather History Graph

Daily Weather History Graph

Search for Another Location

Airport or City:

Trip Planner

Search our weather history database for the weather conditions in past years. The results will help you decide how hot, cold, wet, or windy it might be!

Date:

Astronomy

May. 24, 2013 Rise Set
Actual Time 5:39 AM CDT 7:50 PM CDT
Civil Twilight 5:10 AM CDT 8:19 PM CDT
Nautical Twilight 4:35 AM CDT 8:54 PM CDT
Astronomical Twilight 3:57 AM CDT 9:32 PM CDT
Moon 7:33 PM CDT (5/24) 5:08 AM CDT (5/24)
Length of Visible Light 15h 08m
Length of Day
14h 11m
Full, 100% of the Moon is Illuminated
May 24
Full
May 24
Full
May 31
Last Quarter
Jun 8
New
Jun 16
First Quarter

Hourly Weather History & Observations

Time (CDT) Temp. Dew Point Humidity Pressure Visibility Wind Dir Wind Speed Gust Speed Precip Events Conditions
12:53 AM 62.1 °F 55.9 °F 80% 30.08 in 10.0 mi NNW 6.9 mph - N/A   Clear
1:53 AM 62.1 °F 55.0 °F 78% 30.10 in 10.0 mi NNW 5.8 mph - N/A   Clear
2:53 AM 60.1 °F 55.0 °F 83% 30.10 in 10.0 mi Calm Calm - N/A   Clear
3:53 AM 57.9 °F 54.0 °F 87% 30.11 in 10.0 mi Calm Calm - N/A   Clear
4:53 AM 57.9 °F 54.0 °F 87% 30.13 in 10.0 mi North 3.5 mph - N/A   Clear
5:28 AM 57.2 °F 55.4 °F 94% 30.15 in 10.0 mi Calm Calm - N/A   Mostly Cloudy
5:53 AM 57.9 °F 55.0 °F 90% 30.16 in 10.0 mi Calm Calm - N/A   Mostly Cloudy
6:53 AM 59.0 °F 54.0 °F 83% 30.19 in 10.0 mi North 15.0 mph - N/A   Overcast
7:53 AM 59.0 °F 52.0 °F 78% 30.22 in 9.0 mi North 13.8 mph 18.4 mph N/A   Overcast
8:53 AM 61.0 °F 50.0 °F 67% 30.26 in 10.0 mi North 10.4 mph - N/A   Mostly Cloudy
9:39 AM 62.6 °F 48.2 °F 59% 30.28 in 10.0 mi North 12.7 mph - N/A   Scattered Clouds
9:53 AM 64.0 °F 48.9 °F 58% 30.27 in 10.0 mi North 11.5 mph - N/A   Partly Cloudy
10:53 AM 66.0 °F 48.9 °F 54% 30.27 in 10.0 mi North 11.5 mph 19.6 mph N/A   Partly Cloudy
11:53 AM 69.1 °F 48.9 °F 49% 30.27 in 10.0 mi NNE 12.7 mph - N/A   Clear
12:53 PM 72.0 °F 46.9 °F 41% 30.25 in 10.0 mi NNE 11.5 mph 20.7 mph N/A   Clear
1:53 PM 73.9 °F 45.0 °F 35% 30.26 in 10.0 mi NNE 11.5 mph 19.6 mph N/A   Clear
2:53 PM 75.0 °F 45.0 °F 34% 30.26 in 10.0 mi North 10.4 mph 17.3 mph N/A   Clear
3:53 PM 75.9 °F 45.0 °F 33% 30.24 in 10.0 mi NNE 9.2 mph 18.4 mph N/A   Clear
4:53 PM 75.0 °F 43.0 °F 32% 30.24 in 10.0 mi NNE 12.7 mph - N/A   Clear
5:53 PM 73.9 °F 43.0 °F 33% 30.24 in 10.0 mi NNE 10.4 mph - N/A   Clear
6:53 PM 71.1 °F 45.0 °F 39% 30.23 in 10.0 mi NE 6.9 mph - N/A   Clear
7:53 PM 66.0 °F 46.9 °F 50% 30.23 in 10.0 mi NE 4.6 mph - N/A   Clear
8:53 PM 62.1 °F 46.9 °F 58% 30.24 in 10.0 mi North 3.5 mph - N/A   Clear
9:53 PM 57.0 °F 51.1 °F 81% 30.26 in 10.0 mi North 4.6 mph - N/A   Clear
10:53 PM 57.0 °F 50.0 °F 77% 30.27 in 10.0 mi North 3.5 mph - N/A   Clear
11:53 PM 57.0 °F 48.0 °F 72% 30.27 in 10.0 mi NE 4.6 mph - N/A   Clear